Montreal-Pierre Elliott T, Canada

5:30 PM EDT on August 24, 2016 (GMT -0400)
Montreal International (Dorval)

Weather History for CYUL - August, 2013

Change the Weather History Date:

Saturday, August 3, 2013

  Actual Average Record
Temperature  
Mean Temperature 67 °F -  
Max Temperature 73 °F 76 °F 87 °F (2001)
Min Temperature 61 °F 61 °F 57 °F (1999)
Cooling Degree Days 2    
Growing Degree Days 17 (Base 50)    
Moisture  
Dew Point 58 °F    
Average Humidity 74    
Maximum Humidity 94    
Minimum Humidity 53    
Precipitation  
Precipitation 0.04 in - - ()
Sea Level Pressure  
Sea Level Pressure 29.77 in    
Wind  
Wind Speed 11 mph ()    
Max Wind Speed 18 mph    
Max Gust Speed 25 mph    
Visibility 14.2 miles    
Events Rain , Thunderstorm    
Averages and records for this station are not official NWS values.
T = Trace of Precipitation, MM = Missing Value Source: Averaged Metar Reports

Daily Weather History Graph

Daily Weather History Graph

Search for Another Location

Airport or City:

Trip Planner

Search our weather history database for the weather conditions in past years. The results will help you decide how hot, cold, wet, or windy it might be!

Date:

Astronomy

Aug. 03, 2013 Rise Set
Actual Time 5:41 AM EDT 8:19 PM EDT
Civil Twilight 5:07 AM EDT 8:53 PM EDT
Nautical Twilight 4:25 AM EDT 9:36 PM EDT
Astronomical Twilight 3:35 AM EDT 10:24 PM EDT
Moon 2:46 AM EDT (8/3) 6:01 PM EDT (8/3)
Length of Visible Light 15h 45m
Length of Day
14h 38m
Waning Crescent, 9% of the Moon is Illuminated
Aug 3
Waning Crescent
Aug 6
New
Aug 14
First Quarter
Aug 20
Full
Aug 28
Last Quarter

Hourly Weather History & Observations

Time (EDT) Temp. Dew Point Humidity Pressure Visibility Wind Dir Wind Speed Gust Speed Precip Events Conditions
12:00 AM 68.0 °F 60.8 °F 78% 29.76 in 15.0 mi SW 13.8 mph - N/A   Overcast
1:00 AM 68.0 °F 60.8 °F 78% 29.76 in 12.0 mi SW 12.7 mph - N/A   Overcast
1:08 AM 68.0 °F 60.8 °F 78% 29.76 in 12.0 mi SW 10.4 mph 19.6 mph N/A Rain Light Rain Showers
2:00 AM 66 °F 61 °F 80% 29.75 in 12 mi WSW 6.9 mph - - Rain Light Rain Showers
2:00 AM 66.2 °F 60.8 °F 83% 29.74 in 12.0 mi WSW 8.1 mph - N/A Rain Light Rain Showers
3:00 AM 66.2 °F 60.8 °F 83% 29.75 in 10.0 mi SW 13.8 mph - N/A Rain Light Rain Showers
4:00 AM 64.4 °F 57.2 °F 77% 29.74 in 15.0 mi SW 15.0 mph - N/A   Overcast
5:00 AM 62.6 °F 57.2 °F 82% 29.75 in 12.0 mi WSW 11.5 mph - N/A   Overcast
6:00 AM 62.6 °F 57.2 °F 82% 29.76 in 15.0 mi WSW 8.1 mph - N/A   Scattered Clouds
7:00 AM 62.6 °F 57.2 °F 82% 29.77 in 15.0 mi WSW 11.5 mph - N/A   Partly Cloudy
8:00 AM 65 °F 58 °F 71% 29.77 in 15 mi WSW 13.8 mph - -   Partly Cloudy
8:00 AM 64.4 °F 57.2 °F 77% 29.77 in 15.0 mi WSW 13.8 mph - N/A   Scattered Clouds
9:00 AM 66.2 °F 57.2 °F 73% 29.77 in 15.0 mi West 13.8 mph - N/A   Mostly Cloudy
10:00 AM 64.4 °F 57.2 °F 77% 29.78 in 15.0 mi West 10.4 mph - N/A   Overcast
11:00 AM 66.2 °F 59.0 °F 78% 29.77 in 15.0 mi WSW 13.8 mph - N/A   Mostly Cloudy
12:00 PM 69.8 °F 57.2 °F 64% 29.76 in 15.0 mi West 15.0 mph - N/A   Scattered Clouds
1:00 PM 71.6 °F 57.2 °F 60% 29.75 in 30.0 mi WSW 17.3 mph 23.0 mph N/A   Mostly Cloudy
2:00 PM 70 °F 56 °F 53% 29.76 in 15 mi West 16.1 mph - -   Mostly Cloudy
2:00 PM 69.8 °F 57.2 °F 64% 29.76 in 15.0 mi West 16.1 mph 24.2 mph N/A   Mostly Cloudy
2:51 PM 73.4 °F 55.4 °F 53% 29.76 in 15.0 mi West 18.4 mph 25.3 mph N/A Rain Light Rain Showers
3:00 PM 71.6 °F 57.2 °F 60% 29.76 in 15.0 mi West 13.8 mph 25.3 mph N/A   Mostly Cloudy
4:00 PM 69.8 °F 59.0 °F 68% 29.77 in 15.0 mi SSW 12.7 mph - N/A   Mostly Cloudy
5:00 PM 68.0 °F 59.0 °F 73% 29.78 in 15.0 mi West 18.4 mph - N/A Rain Light Rain Showers
5:21 PM 69.8 °F 60.8 °F 73% 29.77 in 30.0 mi WSW 9.2 mph - N/A   Mostly Cloudy
6:00 PM 71.6 °F 57.2 °F 60% 29.77 in 30.0 mi West 10.4 mph - N/A   Mostly Cloudy
7:00 PM 69.8 °F 57.2 °F 64% 29.78 in 30.0 mi West 6.9 mph - N/A   Mostly Cloudy
8:00 PM 69 °F 57 °F 57% 29.79 in 28 mi West 8.1 mph - -   Partly Cloudy
8:00 PM 69.8 °F 57.2 °F 64% 29.79 in 30.0 mi West 8.1 mph - N/A   Overcast
8:23 PM 69.8 °F 59.0 °F 68% 29.81 in 15.0 mi NW 12.7 mph - N/A Rain Light Rain Showers
8:36 PM 68.0 °F 57.2 °F 68% 29.79 in 15.0 mi NW 11.5 mph 23.0 mph N/A Rain , Thunderstorm Light Thunderstorms and Rain
9:00 PM 64.4 °F 57.2 °F 77% 29.82 in 15.0 mi WSW 10.4 mph 17.3 mph N/A Rain , Thunderstorm Light Thunderstorms and Rain
9:23 PM 64.4 °F 57.2 °F 77% 29.82 in 15.0 mi WNW 3.5 mph - N/A Rain Light Rain Showers
10:00 PM 62.6 °F 59.0 °F 88% 29.82 in 12.0 mi WSW 6.9 mph - N/A Rain Light Rain Showers
11:00 PM 62.6 °F 60.8 °F 94% 29.81 in 15.0 mi SW 8.1 mph - N/A   Overcast
11:09 PM 62.6 °F 60.8 °F 94% 29.81 in 15.0 mi SW 6.9 mph - N/A Rain Light Rain Showers
11:36 PM 62.6 °F 59.0 °F 88% 29.81 in 15.0 mi West 6.9 mph - N/A   Scattered Clouds